Weather observations for the past three days for
Lewisburg / Greenbrier
Imperial (Metric)
Date Time (edt) Wind (mph) Vis. (mi.) Weather Sky Cond. Temperature (ºF) Relative Humidity Wind Chill (°F) Heat Index (°F) Pressure Precipitation (in)
Air Dwpt 6 hour altimeter (in) sea level (mb) 1 hr 3 hr 6 hr
Max. Min.
10 08:55 S 3 10.00 Fair CLR 57.2 50 77% 30.03 0.0
10 08:35 Calm 10.00 Fair CLR 53.6 50 88% 30.02 0.0
10 08:15 Calm 10.00 Fair CLR 50 48.2 94% 30.01 0.0
10 07:55 N 1 10.00 Fair CLR 46.4 44.6 47.1 39.6 93% 30.01 0.0
10 07:35 Calm 10.00 Fair CLR 46.4 46.4 100% 30.02 0.0
10 07:15 Calm 10.00 Fair CLR 44.6 44.6 100% 30.01 0.0
10 06:55 Calm 10.00 Fair CLR 42.8 42.8 100% 30 0.0
10 06:35 SE 2 8.00 Fair CLR 41 41 100% 29.99 0.0
10 06:15 SE 1 8.00 Fair CLR 41 41 100% 29.98 0.0
10 05:55 S 3 8.00 Fair CLR 41 41 100% 29.98 0.0
10 05:35 SW 2 10.00 Fair CLR 42.8 42.8 100% 29.97 0.0
10 05:15 W 3 10.00 Fair CLR 42.8 42.8 100% 29.96 0.0
10 04:55 SW 3 10.00 Fair CLR 42.8 42.8 100% 29.96 0.0
10 04:35 SE 3 10.00 Fair CLR 42.8 42.8 100% 29.95 0.0
10 04:15 Calm 10.00 Fair CLR 44.6 42.8 93% 29.95 0.0
10 03:55 Calm 10.00 Fair CLR 44.6 42.8 93% 29.95 0.0
10 03:35 Calm 10.00 Fair CLR 44.6 44.6 100% 29.95 0.0
10 03:15 SW 1 10.00 Fair CLR 44.6 44.6 100% 29.95 0.0
10 02:55 SE 3 10.00 Fair CLR 44.6 44.6 100% 29.94 0.0
10 02:35 SE 1 10.00 Fair CLR 44.6 42.8 93% 29.94 0.0
10 02:15 N 2 10.00 Fair CLR 44.6 42.8 93% 29.94 0.0
10 01:55 Calm 10.00 Fair CLR 46.4 44.6 63.1 45.1 93% 29.94 0.0
10 01:35 Calm 10.00 Fair CLR 46.4 42.8 87% 29.94 0.0
10 01:15 Calm 10.00 Fair CLR 46.4 42.8 87% 29.94 0.0
10 00:55 Calm 10.00 Fair CLR 46.4 42.8 87% 29.94 0.0
10 00:35 Calm 10.00 Fair CLR 46.4 42.8 87% 29.95 0.0
10 00:15 Calm 10.00 Fair CLR 48.2 42.8 82% 29.94 0.0
09 23:55 S 5 10.00 Fair CLR 48.2 44.6 87% 47 29.94 0.0
09 23:35 Calm 10.00 Fair CLR 50 42.8 76% 29.94 0.0
09 23:15 Calm 10.00 Fair CLR 51.8 42.8 72% 29.94 0.0
09 22:55 Calm 10.00 Fair CLR 53.6 42.8 67% 29.94 0.0
09 22:35 SW 2 10.00 Fair CLR 51.8 42.8 72% 29.93 0.0
09 22:15 Calm 10.00 Fair CLR 55.4 42.8 63% 29.92 0.0
09 21:55 SW 3 10.00 Fair CLR 55.4 42.8 63% 29.91 0.0
09 21:35 SW 3 10.00 Fair CLR 59 42.8 55% 29.91 0.0
09 21:15 W 5 10.00 Fair CLR 59 42.8 55% 29.9 0.0
09 20:55 W 5 10.00 Fair CLR 60.8 42.8 52% 29.89 0.0
09 20:35 W 5 10.00 Fair CLR 59 42.8 55% 29.88 0.0
09 20:15 W 5 10.00 Fair CLR 60.8 42.8 52% 29.88 0.0
09 19:55 W 5 10.00 Fair CLR 62.6 42.8 68.7 63 49% 29.87 0.0
09 19:35 W 6 10.00 Fair CLR 64.4 42.8 46% 29.86 0.0
09 19:15 W 8 10.00 Fair CLR 64.4 41 43% 29.86 0.0
09 17:45 W 10 G 18 10.00 Mostly Cloudy BKN070 66.2 42.8 43% 29.86 0.0
09 16:45 W 10 10.00 Mostly Cloudy BKN060 66.2 42.8 43% 29.88 0.0
09 15:45 SW 12 G 17 10.00 Overcast SCT065 OVC075 66.2 44.6 46% 29.84 0.0
09 14:45 SW 9 G 16 10.00 Mostly Cloudy SCT050 SCT075 BKN095 66.2 44.6 46% 29.85 0.0
09 13:45 W 5 10.00 Mostly Cloudy BKN050 BKN065 BKN100 64.4 46.4 52% 29.86 0.0
09 12:45 W 7 10.00 Overcast SCT045 BKN055 OVC110 60.8 44.6 55% 29.87 0.0
09 11:45 SW 7 10.00 Mostly Cloudy BKN055 62.6 46.4 56% 29.87 0.0
09 10:45 SW 10 10.00 Fair CLR 60.8 46.4 59% 29.88 0.0
09 09:50 SW 6 10.00 Fair CLR 55.4 46.4 72% 29.88 0.0
09 08:55 Calm 10.00 Fair CLR 48.2 41 76% 29.9 0.0
09 08:35 NW 2 10.00 Fair CLR 44.6 41 87% 29.9 0.0
09 08:15 Calm 10.00 Fair CLR 42.8 41 93% 29.9 0.0
09 07:55 Calm 10.00 Fair CLR 42.8 41 44.4 37.4 93% 29.9 0.0
09 07:35 Calm 10.00 Fair CLR 41 39.2 93% 29.9 0.0
09 07:15 E 1 10.00 Fair CLR 39.2 37.4 93% 29.9 0.0
09 06:55 N 3 10.00 Fair CLR 37.4 37.4 100% 29.89 0.0
09 06:35 N 3 10.00 Fair CLR 39.2 37.4 93% 29.89 0.0
09 06:15 NE 3 10.00 Fair CLR 39.2 37.4 93% 29.88 0.0
09 05:55 N 2 10.00 Fair CLR 39.2 37.4 93% 29.88 0.0
09 05:35 Calm 10.00 Fair CLR 41 37.4 87% 29.89 0.0
09 05:15 N 2 10.00 Fair CLR 41 37.4 87% 29.89 0.0
09 04:55 N 2 10.00 Fair CLR 39.2 37.4 93% 29.89 0.0
09 04:35 NE 3 10.00 Fair CLR 41 37.4 87% 29.9 0.0
09 04:15 N 5 10.00 Fair CLR 41 37.4 87% 38 29.9 0.0
09 03:55 N 3 10.00 Fair CLR 42.8 37.4 81% 29.9 0.0
09 03:35 N 5 10.00 Fair CLR 42.8 37.4 81% 41 29.9 0.0
09 03:15 N 5 10.00 A Few Clouds FEW050 42.8 37.4 81% 41 29.9 0.0
09 02:55 N 5 10.00 A Few Clouds FEW050 42.8 37.4 81% 41 29.91 0.0
09 02:35 N 3 10.00 A Few Clouds FEW050 FEW090 44.6 37.4 76% 29.91 0.0
09 02:15 N 5 10.00 Mostly Cloudy SCT055 BKN090 44.6 37.4 76% 43 29.92 0.0
09 01:55 N 3 10.00 Partly Cloudy SCT055 44.6 37.4 62.1 42.6 76% 29.93 0.0
09 01:35 Calm 10.00 A Few Clouds FEW055 42.8 37.4 81% 29.92 0.0
09 01:15 NE 3 10.00 Fair CLR 46.4 35.6 66% 29.93 0.0
09 00:55 SW 2 10.00 Fair CLR 50 35.6 58% 29.93 0.0
09 00:35 SW 5 10.00 Fair CLR 50 35.6 58% 49 29.92 0.0
09 00:15 S 6 10.00 Fair CLR 51.8 33.8 50% 29.92 0.0
08 23:55 S 6 10.00 Fair CLR 51.8 33.8 50% 29.93 0.0
08 23:35 SW 3 10.00 Fair CLR 51.8 35.6 54% 29.93 0.0
08 23:15 S 6 10.00 Fair CLR 51.8 33.8 50% 29.92 0.0
08 22:55 S 3 10.00 Fair CLR 53.6 35.6 51% 29.93 0.0
08 22:35 S 6 10.00 Fair CLR 51.8 35.6 54% 29.93 0.0
08 22:15 S 5 10.00 Fair CLR 53.6 35.6 51% 29.93 0.0
08 21:55 S 6 10.00 Fair CLR 55.4 35.6 47% 29.93 0.0
08 21:35 S 5 10.00 Fair CLR 51.8 37.4 58% 29.92 0.0
08 21:15 S 3 10.00 Fair CLR 53.6 35.6 51% 29.91 0.0
08 20:55 S 2 10.00 Fair CLR 55.4 35.6 47% 29.91 0.0
08 20:15 S 3 10.00 Fair CLR 60.8 33.8 36% 29.91 0.0
08 19:55 S 6 10.00 Fair CLR 62.6 33.8 65.7 59.4 34% 29.92 0.0
08 19:35 S 10 10.00 Fair CLR 62.6 33.8 34% 29.91 0.0
08 19:15 SW 9 10.00 Fair CLR 64.4 32 30% 29.91 0.0
08 18:45 S 6 10.00 Fair CLR 64.4 32 30% 29.91 0.0
08 17:45 Calm 10.00 Partly Cloudy SCT070 64.4 32 30% 29.91 0.0
08 16:45 W 5 G 20 10.00 Partly Cloudy SCT075 64.4 33.8 32% 29.93 0.0
08 15:45 Calm 10.00 Partly Cloudy SCT080 62.6 32 32% 29.95 0.0
08 14:45 SW 12 G 18 10.00 Fair CLR 62.6 33.8 34% 29.98 0.0
08 13:51 S 10 G 16 10.00 Fair CLR 60.8 33.8 36% 30 0.0
08 12:45 SW 6 10.00 Fair CLR 57.2 33.8 41% 30.03 0.0
08 11:45 SW 13 G 18 10.00 Fair CLR 57.2 32 39% 30.04 0.0
08 10:50 SW 7 10.00 Fair CLR 53.6 33.8 47% 30.06 0.0
08 09:47 SW 9 10.00 Fair CLR 48.2 35.6 62% 45 30.05 0.0
08 08:55 SW 8 10.00 Fair CLR 44.6 35.6 71% 41 30.06 0.0
08 08:35 SW 7 10.00 Fair CLR 42.8 35.6 76% 39 30.06 0.0
08 08:15 SW 5 10.00 Fair CLR 41 35.6 81% 38 30.05 0.0
08 07:55 Calm 10.00 Fair CLR 37.4 35.6 38.8 31.3 93% 30.05 0.0
08 07:35 Calm 10.00 Fair CLR 33.8 32 93% 30.04 0.0
08 07:15 N 1 10.00 Fair CLR 32 30.2 93% 30.04 0.0
08 06:55 Calm 10.00 Fair CLR 35.6 32 87% 30.04 0.0
08 06:35 SW 2 10.00 Fair CLR 33.8 32 93% 30.03 0.0
08 06:15 SW 3 10.00 Fair CLR 33.8 32 93% 30.02 0.0
08 05:55 S 3 10.00 Fair CLR 32 30.2 93% 30.01 0.0
08 05:35 S 3 10.00 Fair CLR 33.8 32 93% 30 0.0
08 05:15 S 3 10.00 Fair CLR 33.8 32 93% 30 0.0
08 04:55 S 5 10.00 Fair CLR 35.6 32 87% 32 30 0.0
08 04:35 S 5 10.00 Fair CLR 35.6 32 87% 32 29.99 0.0
08 04:15 SW 3 10.00 Fair CLR 35.6 32 87% 29.99 0.0
08 03:55 S 5 10.00 Fair CLR 33.8 32 93% 30 29.99 0.0
08 03:35 S 3 10.00 Fair CLR 35.6 32 87% 29.99 0.0
08 03:15 S 5 10.00 Fair CLR 37.4 32 81% 34 29.99 0.0
08 02:55 S 3 10.00 Fair CLR 35.6 32 87% 29.99 0.0
08 02:35 S 3 10.00 Fair CLR 37.4 32 81% 29.99 0.0
08 02:15 S 3 10.00 Fair CLR 37.4 32 81% 29.99 0.0
08 01:55 S 3 10.00 Fair CLR 37.4 32 53.8 37.6 81% 29.98 0.0
08 01:35 Vrbl 2 10.00 Fair CLR 39.2 32 75% 29.98 0.0
08 01:15 N 5 10.00 Fair CLR 42.8 30.2 61% 41 29.98 0.0
08 00:55 NW 5 10.00 Fair CLR 42.8 30.2 61% 41 29.98 0.0
08 00:35 NW 7 10.00 Fair CLR 42.8 32 66% 39 29.98 0.0
08 00:15 NW 5 10.00 Fair CLR 41 35.6 81% 38 29.97 0.0
07 23:55 N 2 10.00 Fair CLR 42.8 33.8 71% 29.97 0.0
07 23:35 Vrbl 1 10.00 Fair CLR 44.6 33.8 66% 29.97 0.0
07 23:15 NW 3 10.00 Fair CLR 46.4 32 57% 29.96 0.0
07 22:55 NW 6 10.00 Fair CLR 48.2 32 54% 46 29.96 0.0
07 22:35 NW 7 10.00 Fair CLR 48.2 32 54% 46 29.95 0.0
07 22:15 NW 6 10.00 Fair CLR 48.2 33.8 58% 46 29.94 0.0
07 21:55 NW 5 10.00 Fair CLR 48.2 33.8 58% 47 29.94 0.0
07 21:35 NW 6 10.00 Fair CLR 50 33.8 54% 48 29.93 0.0
07 21:15 NW 10 10.00 Fair CLR 50 33.8 54% 46 29.92 0.0
07 20:55 NW 6 10.00 A Few Clouds FEW060 50 33.8 54% 48 29.92 0.0
07 20:35 NW 6 10.00 Partly Cloudy SCT060 51.8 33.8 50% 29.91 0.0
07 20:15 NW 6 10.00 Partly Cloudy SCT060 51.8 33.8 50% 29.9 0.0
07 19:55 W 8 10.00 Fair CLR 53.6 33.8 59.4 53.8 47% 29.9 0.0
07 19:35 W 13 10.00 Fair CLR 55.4 33.8 44% 29.9 0.0
07 19:15 W 9 10.00 Fair CLR 55.4 35.6 47% 29.89 0.0
07 18:45 W 13 G 22 10.00 Partly Cloudy SCT050 57.2 35.6 44% 29.88 0.0
07 17:45 NW 8 G 20 10.00 Mostly Cloudy BKN049 57.2 35.6 44% 29.86 0.0
07 16:45 W 14 G 21 10.00 Partly Cloudy SCT049 59 37.4 45% 29.85 0.0
07 15:45 W 129 G 21 10.00 Mostly Cloudy and Windy BKN040 57.2 39.2 51% 29.86 0.0
07 14:45 NW 18 G 23 10.00 Overcast OVC041 57.2 41 55% 29.87 0.0
07 13:45 W 9 10.00 Overcast OVC043 55.4 39.2 55% 29.87 0.0
07 12:45 W 7 10.00 Overcast OVC041 55.4 41 59% 29.89 0.0
07 11:55 W 5 10.00 Overcast OVC033 53.6 39.2 58% 29.9 0.0
07 10:45 N 5 10.00 Overcast SCT024 OVC031 51.8 39.2 62% 29.91 0.0
07 09:51 N 5 10.00 Overcast OVC027 48.2 42.8 82% 47 29.93 0.0
Date Time (edt) Wind (mph) Vis. (mi.) Weather Sky Cond. Air Dwpt Max. Min. Relative Humidity Wind Chill (°F) Heat Index (°F) altimeter (in) sea level (mb) 1 hr 3 hr 6 hr
6 hour
Temperature (ºF) Pressure Precipitation (in)